When you browse on this site, cookies collect data to enhance your experience and personalize the content and advertising you see.
Visit our Privacy Policy to learn more. By continuing to use the site, you agree to this use of cookies and data.
  • In Hungary
  • List of Countries
  • For 7 days
  • Water Temperature
  • Satellite Maps
  • Weather Map
  • News
  • Weather Widgets
  • user-avatar
    Login

    Hourly Weather Bologna

    Today, 19 November, Monday

    Time Temperature Precipitation Wind Pressure Humidity
    00:00 +4°C° 0 mm 2 mps 753 mmHg 67%
    01:00 +4°C° 0 mm 2 mps 753 mmHg 68%
    02:00 +4°C° 0 mm 2 mps 752 mmHg 69%
    03:00 +4°C° 0 mm 2 mps 752 mmHg 70%
    04:00 +4°C° 0 mm 2 mps 752 mmHg 70%
    05:00 +4°C° 0 mm 2 mps 751 mmHg 71%
    06:00 +4°C° 0 mm 2 mps 751 mmHg 73%
    07:00 +4°C° 0 mm 2 mps 751 mmHg 74%
    08:00 +5°C° 0 mm 2 mps 751 mmHg 70%
    09:00 +6°C° 0 mm 2 mps 751 mmHg 66%
    10:00 +7°C° 0 mm 3 mps 751 mmHg 62%
    11:00 +8°C° 0 mm 3 mps 750 mmHg 61%
    12:00 +7°C° 0 mm 4 mps 750 mmHg 60%
    13:00 +8°C° 0 mm 4 mps 749 mmHg 59%
    14:00 +7°C° 0 mm 4 mps 749 mmHg 62%
    15:00 +7°C° 0 mm 4 mps 749 mmHg 66%
    16:00 +7°C° 0 mm 4 mps 748 mmHg 69%
    17:00 +7°C° 0.1 mm 4 mps 748 mmHg 72%
    18:00 +7°C° 0.1 mm 4 mps 748 mmHg 74%
    19:00 +6°C° 0.1 mm 4 mps 747 mmHg 77%
    20:00 +6°C° 0.6 mm 4 mps 747 mmHg 79%
    21:00 +6°C° 0.6 mm 4 mps 747 mmHg 82%
    22:00 +6°C° 0.6 mm 5 mps 746 mmHg 84%
    23:00 +6°C° 1.1 mm 5 mps 746 mmHg 84%

    Tomorrow, 20 November, Tuesday

    Time Temperature Precipitation Wind Pressure Humidity
    00:00 +6°C° 1.1 mm 5 mps 746 mmHg 84%
    01:00 +6°C° 1.1 mm 5 mps 745 mmHg 84%
    02:00 +6°C° 0.7 mm 5 mps 745 mmHg 84%
    03:00 +5°C° 0.7 mm 4 mps 745 mmHg 84%
    04:00 +5°C° 0.7 mm 4 mps 745 mmHg 84%
    05:00 +5°C° 0.1 mm 4 mps 745 mmHg 84%
    06:00 +5°C° 0.1 mm 3 mps 745 mmHg 84%
    07:00 +4°C° 0.1 mm 3 mps 745 mmHg 85%
    08:00 +5°C° 0 mm 3 mps 746 mmHg 82%
    09:00 +5°C° 0 mm 3 mps 746 mmHg 80%
    10:00 +7°C° 0 mm 2 mps 747 mmHg 77%
    11:00 +8°C° 0 mm 2 mps 747 mmHg 74%
    12:00 +9°C° 0 mm 2 mps 747 mmHg 70%
    13:00 +11°C° 0 mm 1 mps 748 mmHg 66%
    14:00 +10°C° 0 mm 1 mps 748 mmHg 68%
    15:00 +10°C° 0 mm 1 mps 748 mmHg 70%
    16:00 +10°C° 0 mm 1 mps 748 mmHg 72%
    17:00 +9°C° 0 mm 1 mps 749 mmHg 75%
    18:00 +8°C° 0 mm 1 mps 749 mmHg 77%
    19:00 +8°C° 0 mm 1 mps 750 mmHg 80%
    20:00 +8°C° 0 mm 1 mps 750 mmHg 81%
    21:00 +7°C° 0 mm 1 mps 750 mmHg 81%
    22:00 +7°C° 0 mm 1 mps 751 mmHg 82%
    23:00 +7°C° 0 mm 1 mps 751 mmHg 82%

    Day after tomorrow, 21 November, Wednesday

    Time Temperature Precipitation Wind Pressure Humidity
    00:00 +7°C° 0 mm 1 mps 751 mmHg 83%
    01:00 +6°C° 0 mm 2 mps 751 mmHg 83%
    02:00 +5°C° 0 mm 2 mps 751 mmHg 84%
    03:00 +5°C° 0 mm 2 mps 751 mmHg 84%
    04:00 +5°C° 0 mm 2 mps 751 mmHg 85%
    05:00 +6°C° 0 mm 1 mps 751 mmHg 85%
    06:00 +6°C° 0 mm 1 mps 751 mmHg 86%
    07:00 +6°C° 0 mm 1 mps 752 mmHg 86%
    08:00 +7°C° 0 mm 1 mps 752 mmHg 81%
    09:00 +8°C° 0 mm 1 mps 752 mmHg 77%
    10:00 +10°C° 0 mm 1 mps 753 mmHg 72%
    11:00 +10°C° 0 mm 1 mps 753 mmHg 71%
    12:00 +11°C° 0 mm 1 mps 753 mmHg 70%
    13:00 +12°C° 0 mm 1 mps 753 mmHg 68%
    14:00 +11°C° 0 mm 1 mps 753 mmHg 71%
    15:00 +11°C° 0 mm 1 mps 753 mmHg 74%
    16:00 +10°C° 0 mm 1 mps 753 mmHg 77%
    17:00 +10°C° 0 mm 1 mps 753 mmHg 79%
    18:00 +9°C° 0 mm 1 mps 753 mmHg 81%
    19:00 +8°C° 0 mm 1 mps 754 mmHg 83%
    20:00 +8°C° 0 mm 1 mps 754 mmHg 83%
    21:00 +8°C° 0 mm 1 mps 755 mmHg 83%
    22:00 +8°C° 0 mm 1 mps 755 mmHg 83%
    23:00 +8°C° 0 mm 1 mps 755 mmHg 83%

    22 November, Thursday

    Time Temperature Precipitation Wind Pressure Humidity
    00:00 +8°C° 0 mm 1 mps 755 mmHg 84%
    01:00 +8°C° 0 mm 1 mps 756 mmHg 84%
    02:00 +8°C° 0 mm 1 mps 756 mmHg 85%
    03:00 +7°C° 0 mm 1 mps 756 mmHg 85%
    04:00 +7°C° 0 mm 1 mps 756 mmHg 85%
    05:00 +7°C° 0 mm 1 mps 756 mmHg 86%
    06:00 +7°C° 0 mm 1 mps 756 mmHg 86%
    07:00 +7°C° 0 mm 1 mps 757 mmHg 86%
    08:00 +8°C° 0 mm 1 mps 757 mmHg 82%
    09:00 +9°C° 0 mm 1 mps 757 mmHg 78%
    10:00 +10°C° 0 mm 1 mps 758 mmHg 73%
    11:00 +11°C° 0 mm 1 mps 758 mmHg 70%
    12:00 +12°C° 0 mm 1 mps 758 mmHg 66%
    13:00 +13°C° 0 mm 1 mps 758 mmHg 63%
    14:00 +13°C° 0 mm 1 mps 758 mmHg 65%
    15:00 +12°C° 0 mm 1 mps 758 mmHg 67%
    16:00 +12°C° 0 mm 1 mps 759 mmHg 69%
    17:00 +10°C° 0 mm 0 mps 759 mmHg 72%
    18:00 +9°C° 0 mm 0 mps 759 mmHg 74%
    19:00 +8°C° 0 mm 0 mps 760 mmHg 77%
    20:00 +8°C° 0 mm 0 mps 760 mmHg 78%
    21:00 +8°C° 0 mm 0 mps 760 mmHg 79%
    22:00 +8°C° 0 mm 0 mps 761 mmHg 80%
    23:00 +7°C° 0 mm 0 mps 761 mmHg 80%

    23 November, Friday

    Time Temperature Precipitation Wind Pressure Humidity
    00:00 +8°C° 0 mm 1 mps 761 mmHg 81%
    01:00 +8°C° 0 mm 1 mps 761 mmHg 82%
    02:00 +8°C° 0 mm 1 mps 761 mmHg 82%
    03:00 +8°C° 0 mm 1 mps 761 mmHg 83%
    04:00 +7°C° 0 mm 1 mps 762 mmHg 83%
    05:00 +7°C° 0 mm 1 mps 762 mmHg 84%
    06:00 +7°C° 0 mm 1 mps 762 mmHg 84%
    07:00 +7°C° 0 mm 1 mps 762 mmHg 85%
    08:00 +8°C° 0 mm 1 mps 762 mmHg 80%
    09:00 +10°C° 0 mm 1 mps 763 mmHg 75%
    10:00 +11°C° 0 mm 1 mps 763 mmHg 71%
    11:00 +12°C° 0 mm 1 mps 763 mmHg 68%
    12:00 +13°C° 0 mm 1 mps 763 mmHg 65%
    13:00 +14°C° 0 mm 1 mps 762 mmHg 62%
    14:00 +13°C° 0 mm 1 mps 762 mmHg 66%
    15:00 +13°C° 0 mm 1 mps 762 mmHg 69%
    16:00 +13°C° 0 mm 1 mps 762 mmHg 73%
    17:00 +12°C° 0 mm 1 mps 762 mmHg 76%
    18:00 +11°C° 0 mm 1 mps 762 mmHg 80%
    19:00 +11°C° 0 mm 1 mps 762 mmHg 84%
    20:00 +11°C° 0 mm 1 mps 762 mmHg 83%
    21:00 +11°C° 0 mm 1 mps 761 mmHg 83%
    22:00 +11°C° 0 mm 1 mps 761 mmHg 83%
    23:00 +11°C° 0.1 mm 1 mps 761 mmHg 84%

    24 November, Saturday

    Time Temperature Precipitation Wind Pressure Humidity
    00:00 +10°C° 0.1 mm 2 mps 761 mmHg 84%
    01:00 +10°C° 0.1 mm 2 mps 760 mmHg 85%
    02:00 +10°C° 0.4 mm 2 mps 760 mmHg 87%
    03:00 +10°C° 0.4 mm 2 mps 759 mmHg 89%
    04:00 +10°C° 0.4 mm 2 mps 759 mmHg 90%
    05:00 +10°C° 0.5 mm 2 mps 759 mmHg 91%
    06:00 +10°C° 0.5 mm 2 mps 758 mmHg 92%
    07:00 +10°C° 0.5 mm 2 mps 758 mmHg 93%
    08:00 +12°C° 0.3 mm 2 mps 758 mmHg 91%
    09:00 +12°C° 0.3 mm 2 mps 758 mmHg 90%
    10:00 +13°C° 0.3 mm 2 mps 758 mmHg 88%
    11:00 +13°C° 0.1 mm 2 mps 757 mmHg 86%
    12:00 +14°C° 0.1 mm 2 mps 757 mmHg 83%
    13:00 +15°C° 0.1 mm 2 mps 757 mmHg 80%
    14:00 +15°C° 0 mm 2 mps 756 mmHg 82%
    15:00 +14°C° 0 mm 2 mps 756 mmHg 84%
    16:00 +14°C° 0 mm 2 mps 756 mmHg 86%
    17:00 +13°C° 0 mm 2 mps 756 mmHg 89%
    18:00 +12°C° 0 mm 1 mps 756 mmHg 91%
    19:00 +12°C° 0 mm 1 mps 756 mmHg 94%
    20:00 +12°C° 0 mm 1 mps 756 mmHg 94%
    21:00 +11°C° 0 mm 1 mps 756 mmHg 94%
    22:00 +11°C° 0 mm 1 mps 756 mmHg 94%
    23:00 +11°C° 0.2 mm 1 mps 756 mmHg 94%
    Show more